Location: Ford County Road and Bridge Department
(37.7686°N, 99.9762°W)
Time: 04:53:19
(UTC+00:00)

FALCON 9 R/B - Pass Details

Date: 18 January 2020
Orbit: 286 x 10158 km, 34.5° (Epoch: 18 February)

Event Time Altitude Azimuth Distance (km) Brightness Sun altitude
Rises 01:39:32 0° 228° (SW) 9,505 8.5 -22.0°
Reaches altitude 10° 01:49:18 10° 222° (SW) 6,532 7.4 -23.9°
Maximum altitude 02:02:29 31° 169° (SSE) 2,263 4.3 -26.5°
Enters shadow 02:04:08 29° 146° (SE) 2,042 3.9 -26.8°
